Palma de Mallorca, Spain

9:47 AM CEST on March 28, 2017 (GMT +0200)
Palma De Mallorca

Weather History for LEPA - November, 2011

Change the Weather History Date:

Monday, November 21, 2011

  Actual Average Record
Temperature  
Mean Temperature 60 °F -  
Max Temperature 63 °F 60 °F 73 °F (2014)
Min Temperature 57 °F 42 °F 35 °F (1998)
Degree Days  
Heating Degree Days 5    
Growing Degree Days 10 (Base 50)    
Moisture  
Dew Point 58 °F    
Average Humidity 90    
Maximum Humidity 100    
Minimum Humidity 82    
Precipitation  
Precipitation 0.47 in 0.06 in - ()
Sea Level Pressure  
Sea Level Pressure 29.79 in    
Wind  
Wind Speed 6 mph ()    
Max Wind Speed 14 mph    
Max Gust Speed 17 mph    
Visibility 6.1 miles    
Events Rain    
Averages and records for this station are not official NWS values.
T = Trace of Precipitation, MM = Missing Value Source: Averaged Metar Reports

Daily Weather History Graph

Daily Weather History Graph

Search for Another Location

Airport or City:

Trip Planner

Search our weather history database for the weather conditions in past years. The results will help you decide how hot, cold, wet, or windy it might be!

Date:

Astronomy

Nov. 21, 2011 Rise Set
Actual Time 7:39 AM CET 5:29 PM CET
Civil Twilight 7:10 AM CET 5:59 PM CET
Nautical Twilight 6:37 AM CET 6:31 PM CET
Astronomical Twilight 6:05 AM CET 7:04 PM CET
Moon 3:00 AM CET (11/21) 2:42 PM CET (11/21)
Length of Visible Light 10h 48m
Length of Day
9h 50m
Waning Crescent, 20% of the Moon is Illuminated
Nov 21
Waning Crescent
Nov 25
New
Dec 2
First Quarter
Dec 10
Full
Dec 18
Last Quarter

Hourly Weather History & Observations

Time (CET) Temp. Dew Point Humidity Pressure Visibility Wind Dir Wind Speed Gust Speed Precip Events Conditions
12:00 AM 60.8 °F 59.0 °F 94% 29.92 in 6.2 mi ENE 6.9 mph - N/A   Partly Cloudy
12:30 AM 60.8 °F 59.0 °F 94% 29.89 in 6.2 mi ENE 9.2 mph - N/A   Partly Cloudy
1:00 AM 61 °F 59 °F 89% 29.90 in 12 mi ENE 4.6 mph - -   Scattered Clouds
1:00 AM 60.8 °F 59.0 °F 94% 29.89 in 6.2 mi ENE 5.8 mph - N/A   Partly Cloudy
1:30 AM 62.6 °F 59.0 °F 88% 29.89 in 6.2 mi ENE 6.9 mph - N/A Rain Light Rain
2:00 AM 62.6 °F 59.0 °F 88% 29.86 in 6.2 mi East 6.9 mph - N/A   Partly Cloudy
2:30 AM 62.6 °F 59.0 °F 88% 29.86 in 6.2 mi NE 9.2 mph - N/A   Partly Cloudy
3:00 AM 62.6 °F 59.0 °F 88% 29.86 in 6.2 mi NE 8.1 mph - N/A   Partly Cloudy
3:30 AM 62.6 °F 59.0 °F 88% 29.86 in 6.2 mi NE 10.4 mph - N/A   Partly Cloudy
4:00 AM 62.6 °F 59.0 °F 88% 29.86 in 6.2 mi NE 9.2 mph - N/A   Partly Cloudy
4:30 AM 64.4 °F 59.0 °F 83% 29.83 in 6.2 mi NE 10.4 mph - N/A   Partly Cloudy
5:00 AM 62.6 °F 59.0 °F 88% 29.86 in 6.2 mi Variable 2.3 mph - N/A   Partly Cloudy
5:30 AM 62.6 °F 59.0 °F 88% 29.86 in 6.2 mi NE 4.6 mph - N/A   Partly Cloudy
6:00 AM 60.8 °F 59.0 °F 94% 29.83 in 6.2 mi NE 5.8 mph - N/A   Partly Cloudy
6:30 AM 60.8 °F 59.0 °F 94% 29.83 in 6.2 mi ENE 4.6 mph - N/A   Partly Cloudy
7:00 AM 61 °F 59 °F 91% 29.84 in 12 mi ENE 6.9 mph - -   Partly Cloudy
7:00 AM 60.8 °F 59.0 °F 94% 29.83 in 6.2 mi ENE 6.9 mph - N/A   Partly Cloudy
7:30 AM 60.8 °F 59.0 °F 94% 29.83 in 6.2 mi ENE 4.6 mph - N/A   Partly Cloudy
8:00 AM 60.8 °F 57.2 °F 88% 29.86 in 6.2 mi SSE 11.5 mph - N/A Rain Light Rain
8:30 AM 59.0 °F 55.4 °F 88% 29.86 in 3.7 mi Calm Calm - N/A Rain Light Rain
8:34 AM 59.0 °F 57.2 °F 94% 29.86 in 2.5 mi Calm Calm - N/A Rain Rain
9:30 AM 57.2 °F 57.2 °F 100% 29.86 in 1.9 mi North 3.5 mph - N/A Rain Rain
10:00 AM 57.2 °F 57.2 °F 100% 29.86 in 1.9 mi NNW 4.6 mph - N/A Rain Rain
10:18 AM 59.0 °F 57.2 °F 94% 29.83 in 3.7 mi NNW 6.9 mph - N/A Rain Light Rain
10:30 AM 59.0 °F 57.2 °F 94% 29.86 in 3.7 mi North 5.8 mph - N/A Rain Light Rain
11:00 AM 59.0 °F 57.2 °F 94% 29.83 in 6.2 mi NNE 3.5 mph - N/A   Scattered Clouds
11:30 AM 60.8 °F 59.0 °F 94% 29.83 in 6.2 mi NNE 5.8 mph - N/A   Scattered Clouds
12:00 PM 60.8 °F 59.0 °F 94% 29.80 in 6.2 mi NE 3.5 mph - N/A   Scattered Clouds
12:30 PM 60.8 °F 59.0 °F 94% 29.80 in 6.2 mi ENE 9.2 mph - N/A   Partly Cloudy
1:00 PM 62 °F 59 °F 88% 29.78 in 11 mi ENE 9.2 mph - - Rain Light Drizzle
1:00 PM 62.6 °F 59.0 °F 88% 29.77 in 6.2 mi NE 11.5 mph - N/A Rain Light Rain
1:30 PM 62.6 °F 57.2 °F 82% 29.74 in 6.2 mi NNE 8.1 mph - N/A   Scattered Clouds
2:00 PM 62.6 °F 59.0 °F 88% 29.74 in 6.2 mi NE 6.9 mph - N/A   Light Drizzle
2:30 PM 60.8 °F 57.2 °F 88% 29.74 in 6.2 mi NE 9.2 mph - N/A   Light Drizzle
3:00 PM 60.8 °F 57.2 °F 88% 29.74 in 4.3 mi NE 12.7 mph - N/A Rain Light Rain
3:30 PM 60.8 °F 57.2 °F 88% 29.74 in 6.2 mi NNE 5.8 mph - N/A   Light Drizzle
4:00 PM 60.8 °F 55.4 °F 82% 29.71 in 6.2 mi Calm Calm - N/A   Mostly Cloudy
4:30 PM 60.8 °F 55.4 °F 82% 29.71 in 6.2 mi NE 2.3 mph - N/A   Mostly Cloudy
5:00 PM 60.8 °F 57.2 °F 88% 29.71 in 6.2 mi ENE 3.5 mph - N/A   Mostly Cloudy
5:30 PM 60.8 °F 57.2 °F 88% 29.71 in 6.2 mi NNE 3.5 mph - N/A   Mostly Cloudy
6:00 PM 60.8 °F 57.2 °F 88% 29.71 in 6.2 mi NNE 4.6 mph - N/A   Mostly Cloudy
6:30 PM 60.8 °F 57.2 °F 88% 29.71 in 6.2 mi North 3.5 mph - N/A   Mostly Cloudy
7:00 PM 60 °F 57 °F 86% 29.72 in 9 mi ENE 2.3 mph - -   Partly Cloudy
7:00 PM 60.8 °F 57.2 °F 88% 29.71 in 6.2 mi Variable 1.2 mph - N/A   Mostly Cloudy
7:30 PM 60.8 °F 57.2 °F 88% 29.71 in 6.2 mi NE 6.9 mph - N/A   Mostly Cloudy
8:00 PM 60.8 °F 57.2 °F 88% 29.71 in 5.0 mi North 8.1 mph - N/A Rain Light Rain
8:30 PM 59.0 °F 57.2 °F 94% 29.68 in 6.2 mi WNW 1.2 mph 17.3 mph N/A   Scattered Clouds
9:00 PM 59.0 °F 57.2 °F 94% 29.68 in 6.2 mi NE 6.9 mph - N/A   Partly Cloudy
9:30 PM 59.0 °F 57.2 °F 94% 29.71 in 6.2 mi ENE 3.5 mph - N/A   Partly Cloudy
10:00 PM 60.8 °F 59.0 °F 94% 29.71 in 6.2 mi NE 13.8 mph - N/A   Partly Cloudy
10:30 PM 60.8 °F 59.0 °F 94% 29.71 in 6.2 mi NE 10.4 mph - N/A   Light Drizzle
11:00 PM 59.0 °F 57.2 °F 94% 29.68 in 6.2 mi NNE 8.1 mph - N/A   Partly Cloudy
11:30 PM 59.0 °F 57.2 °F 94% 29.68 in 6.2 mi Variable 2.3 mph - N/A   Partly Cloudy